URKK

Pashkovsky Airport

Airport
ICAO code
URKK
Summary
ICAO Region
EUR
ICAO Territory
Location

Krasnodar Krai,

Coordinates
45° 2' 5" N , 39° 10' 14" E
KCC
Metar
URKK 180030Z 27002MPS CAVOK 18/17 Q1017 R23L/CLRD70 TEMPO 0300 FG SCT003 RMK QFE759

Description

Also known as Pashkovsky Airport, this airport serves the souther Russian city of Krasnodar.

Climatology

Humid “subtropical” climate (Köppen climate classification Cfa) - characterized by hot, humid summers and cool winters. Significant amounts of precipitation occur in all seasons in most areas.

Runways

Designator Length Width Surface Rops
05L/23R 2200 49 ASP Yes/Yes
05R/23L 2998 44 CON Yes/Yes

Airport map

Aerial View

SKYbrary Partners:

Safety knowledge contributed by: